Location: Shannon
(40.5500°S, 175.4167°E)
Time: 08:18:18
(UTC+00:00)

CZ-2C R/B - Pass Details

Date: 17 November 2025
Orbit: 782 x 867 km, 98.4° (Epoch: 14 December)

Event Time Altitude Azimuth Distance (km) Brightness Sun altitude
Rises 14:58:30 0° 180° (S) 3,322 6.5 -17.8°
Reaches altitude 10° 15:01:11 10° 193° (SSW) 2,394 5.5 -17.4°
Maximum altitude 15:05:24 25° 246° (WSW) 1,597 4.0 -16.9°
Enters shadow 15:07:26 20° 278° (W) 1,819 4.0 -16.6°
